This demonstration page uses our WeatherBlox Daily Observations layout. Learn more.

Left ArrowRight Arrow

41.55636, -103.73856

Hourly Observations for February 14, 2018

Temp ( °F °C ) Dew Point ( °F °C ) Humidity (%) Winds ( mph kmh ) Pressure ( in mb ) Visibility ( mi km ) Precip ( " mm )
12:53 am 00:53 Clear 40 4.4 26 -3.3 58 58 WSW 9 15 29.97 1015 10 16 N/A
1:53 am 01:53 Clear 36 2.2 25 -3.9 64 64 N N/A 29.94 1014 10 16 N/A
2:53 am 02:53 Clear 33 0.6 26 -3.3 75 75 NW 9 15 29.93 1014 10 16 N/A
3:53 am 03:53 Clear 38 3.3 26 -3.3 62 62 W 9 15 29.90 1013 10 16 N/A
4:53 am 04:53 Clear 36 2.2 25 -3.9 64 64 NW 8 13 29.91 1013 10 16 N/A
5:53 am 05:53 Clear 38 3.3 24 -4.4 57 57 W 8 13 29.93 1014 10 16 N/A
6:53 am 06:53 Sunny 41 5 24 -4.4 51 51 WSW 9 15 29.92 1013 10 16 N/A
7:53 am 07:53 Sunny 45 7.2 25 -3.9 46 46 W 15 24 29.93 1013 10 16 N/A
8:53 am 08:53 Sunny 48 8.9 25 -3.9 41 41 W 17 28 29.90 1012 10 16 N/A
9:53 am 09:53 Sunny 51 10.6 24 -4.4 35 35 W 21 33 29.85 1011 10 16 N/A
10:53 am 10:53 Sunny 55 12.8 25 -3.9 31 31 NW 10 17 29.82 1010 10 16 N/A
11:53 am 11:53 Sunny 56 13.3 25 -3.9 30 30 WNW 12 19 29.79 1009 10 16 N/A
12:53 pm 12:53 Sunny 59 15 26 -3.3 28 28 W 26 43 29.72 1006 10 16 N/A
1:53 pm 13:53 Sunny 60 15.6 23 -5 24 24 W 20 31 29.71 1006 10 16 N/A
2:53 pm 14:53 Sunny 62 16.7 26 -3.3 25 25 WNW 13 20 29.70 1006 10 16 N/A
3:53 pm 15:53 Sunny 60 15.6 27 -2.8 28 28 WNW 16 26 29.70 1006 10 16 N/A
4:53 pm 16:53 Sunny 56 13.3 25 -3.9 30 30 WNW 14 22 29.71 1006 10 16 N/A
5:53 pm 17:53 Clear 46 7.8 24 -4.4 42 42 WSW 9 15 29.74 1007 10 16 N/A
6:53 pm 18:53 Clear 46 7.8 25 -3.9 44 44 undefined N/A 29.74 1007 10 16 N/A
7:53 pm 19:53 Clear 41 5 24 -4.4 51 51 SSW 5 7 29.73 1007 10 16 N/A
8:53 pm 20:53 Clear 36 2.2 27 -2.8 70 70 ENE 5 7 29.74 1007 10 16 N/A
9:53 pm 21:53 Clear 34 1.1 27 -2.8 76 76 VRB 7 11 29.74 1007 10 16 N/A
10:53 pm 22:53 Clear 33 0.6 27 -2.8 78 78 VRB 5 7 29.74 1007 10 16 N/A
11:53 pm 23:53 Cloudy 35 1.7 28 -2.2 76 76 W 5 7 29.74 1007 10 16 N/A

Powered by AerisWeather